CW1621 Weather Reports


Display with metric or nautical units.
time (UTC)temp
F
wind
direction
speed
MPH
gust
MPH
rain 1hr
in
rain 24hr
in
rain mn
in
humidity
%
barometer
mb
20260505215103 70 342 3.0 10.0 0.00 0.00 0.00 48 1012.9
20260505214603 70 346 4.0 9.0 0.00 0.00 0.00 44 1013.1
20260505214103 69 340 5.0 10.0 0.00 0.00 0.00 45 1013.3
20260505213103 70 286 2.0 12.0 0.00 0.00 0.00 46 1013.1
20260505212603 70 330 3.0 9.0 0.00 0.00 0.00 48 1013.2
20260505212103 70 344 5.0 10.0 0.00 0.00 0.00 46 1013.2
20260505211603 70 303 3.0 10.0 0.00 0.00 0.00 46 1013.2
20260505211103 70 296 4.0 8.0 0.00 0.00 0.00 46 1013.2
20260505210103 70 336 5.0 12.0 0.00 0.00 0.00 47 1013.0
20260505205603 69 298 4.0 10.0 0.00 0.00 0.00 49 1013.0
20260505205103 70 301 4.0 9.0 0.00 0.00 0.00 46 1013.1
20260505204603 69 329 3.0 12.0 0.00 0.00 0.00 47 1013.0
20260505203603 69 304 6.0 12.0 0.00 0.00 0.00 45 1013.2
20260505203103 70 327 5.0 9.0 0.00 0.00 0.00 45 1013.1
20260505202603 69 319 4.0 10.0 0.00 0.00 0.00 48 1013.0
20260505202103 69 319 3.0 10.0 0.00 0.00 0.00 44 1013.1
20260505201603 69 322 3.0 9.0 0.00 0.00 0.00 46 1013.0
20260505201103 69 8 3.0 8.0 0.00 0.00 0.00 44 1013.3
20260505200604 69 343 2.0 7.0 0.00 0.00 0.00 47 1013.4
20260505195603 68 319 6.0 12.0 0.00 0.00 0.00 44 1013.5
20260505195103 68 304 4.0 7.0 0.00 0.00 0.00 45 1013.4
20260505194603 67 348 2.0 7.0 0.00 0.00 0.00 49 1013.6
20260505193102 66 77 4.0 6.0 0.00 0.00 0.00 47 1013.7
20260505192602 67 48 2.0 9.0 0.00 0.00 0.00 47 1013.7
20260505192103 66 29 1.0 5.0 0.00 0.00 0.00 50 1013.7
20260505191603 65 57 1.0 3.0 0.00 0.00 0.00 52 1013.9
20260505190103 64 66 5.0 7.0 0.00 0.00 0.00 52 1013.7
20260505185603 63 85 3.0 7.0 0.00 0.00 0.00 52 1013.7
20260505185103 63 125 3.0 5.0 0.00 0.00 0.00 49 1013.8
20260505184603 64 91 3.0 6.0 0.00 0.00 0.00 50 1013.8
20260505184103 64 59 4.0 9.0 0.00 0.00 0.00 52 1013.7
20260505183104 63 29 3.0 7.0 0.00 0.00 0.00 52 1013.8
20260505182603 62 21 6.0 10.0 0.00 0.00 0.00 52 1014.0
20260505182104 62 97 5.0 7.0 0.00 0.00 0.00 54 1014.0
20260505181603 62 88 7.0 10.0 0.00 0.00 0.00 54 1014.0
20260505181103 62 71 2.0 7.0 0.00 0.00 0.00 54 1014.0
20260505180602 61 81 4.0 8.0 0.00 0.00 0.00 56 1014.2
20260505180103 61 72 6.0 12.0 0.00 0.00 0.00 55 1014.2
20260505175603 61 90 5.0 12.0 0.00 0.00 0.00 53 1014.4
20260505175102 61 99 5.0 12.0 0.00 0.00 0.00 53 1014.4
20260505174603 60 64 6.0 12.0 0.00 0.00 0.00 54 1014.4
20260505174103 60 81 6.0 12.0 0.00 0.00 0.00 54 1014.4
20260505173102 60 97 5.0 8.0 0.00 0.00 0.00 57 1014.2
20260505172603 60 111 6.0 12.0 0.00 0.00 0.00 57 1014.3
20260505171603 59 102 6.0 10.0 0.00 0.00 0.00 58 1014.4
20260505171103 59 112 6.0 9.0 0.00 0.00 0.00 58 1014.3
20260505170603 59 70 5.0 9.0 0.00 0.00 0.00 57 1014.0
20260505170103 58 119 6.0 10.0 0.00 0.00 0.00 57 1014.0
20260505165103 58 87 7.0 12.0 0.00 0.00 0.00 56 1014.0
20260505164603 58 94 7.0 12.0 0.00 0.00 0.00 55 1014.0
20260505164103 58 81 5.0 9.0 0.00 0.00 0.00 57 1014.0
20260505163103 57 112 5.0 10.0 0.00 0.00 0.00 57 1014.2
20260505162603 57 86 3.0 10.0 0.00 0.00 0.00 59 1014.1
20260505161603 57 127 5.0 6.0 0.00 0.00 0.00 61 1014.1
20260505161103 56 105 6.0 7.0 0.00 0.00 0.00 59 1014.0
20260505160103 56 90 6.0 12.0 0.00 0.00 0.00 60 1013.8
20260505153103 54 103 7.0 12.0 0.00 0.00 0.00 60 1014.2
20260505152603 54 102 9.0 12.0 0.00 0.00 0.00 61 1014.2
20260505152103 54 109 9.0 12.0 0.00 0.00 0.00 60 1014.2
20260505151603 53 100 9.0 12.0 0.00 0.00 0.00 61 1014.2
20260505140603 51 100 9.0 12.0 0.00 0.00 0.00 68 1012.9
20260505130103 47 130 6.0 7.0 0.00 0.00 0.00 72 1012.9
20260505124603 46 155 4.0 5.0 0.00 0.00 0.00 74 1012.9
20260505123603 44 165 5.0 6.0 0.00 0.00 0.00 77 1013.0
20260505122603 44 155 3.0 5.0 0.00 0.00 0.00 76 1012.9
20260505122104 45 136 3.0 5.0 0.00 0.00 0.00 75 1012.9
20260505121603 45 121 4.0 5.0 0.00 0.00 0.00 74 1012.8
20260505120603 46 102 3.0 5.0 0.00 0.00 0.00 73 1012.4
20260505115603 48 96 9.0 10.0 0.00 0.00 0.00 70 1012.3
20260505115104 48 93 9.0 12.0 0.00 0.00 0.00 70 1012.3
20260505114603 48 93 9.0 12.0 0.00 0.00 0.00 69 1012.3
20260505114103 48 90 10.0 12.0 0.00 0.00 0.00 69 1012.2
20260505113603 48 89 9.0 12.0 0.00 0.00 0.00 69 1012.1
20260505113104 49 87 9.0 12.0 0.00 0.00 0.00 67 1012.0
20260505112102 49 88 8.0 9.0 0.00 0.00 0.00 68 1012.0
20260505111103 49 86 8.0 10.0 0.00 0.00 0.00 68 1011.8
20260505102103 51 119 5.0 5.0 0.00 0.00 0.00 71 1011.2
20260505101603 51 119 3.0 5.0 0.00 0.00 0.00 71 1011.1
20260505101103 50 122 3.0 3.0 0.00 0.00 0.00 71 1011.1
20260505100603 50 124 3.0 3.0 0.00 0.00 0.00 69 1011.4
20260505095602 52 88 9.0 10.0 0.00 0.00 0.00 66 1011.0
20260505095103 52 83 7.0 12.0 0.00 0.00 0.00 67 1010.9
20260505094603 52 78 9.0 12.0 0.00 0.00 0.00 66 1010.9
20260505094103 52 79 11.0 12.0 0.00 0.00 0.00 67 1010.9
20260505093603 52 80 10.0 12.0 0.00 0.00 0.00 68 1010.9
20260505093103 51 83 10.0 12.0 0.00 0.00 0.00 69 1011.2
20260505092603 51 88 9.0 12.0 0.00 0.00 0.00 70 1011.1
20260505092103 51 84 9.0 12.0 0.00 0.00 0.00 70 1011.1
20260505091602 52 87 7.0 10.0 0.00 0.00 0.00 70 1010.9
20260505091103 53 84 9.0 10.0 0.00 0.00 0.00 68 1010.9
20260505090603 53 84 9.0 10.0 0.00 0.00 0.00 67 1010.8
20260505085603 52 92 6.0 6.0 0.00 0.00 0.00 70 1010.9
20260505085103 52 92 5.0 7.0 0.00 0.00 0.00 71 1010.9
20260505084603 51 92 6.0 7.0 0.00 0.00 0.00 73 1011.1
20260505084104 51 92 3.0 5.0 0.00 0.00 0.00 71 1011.1
20260505083603 53 90 7.0 10.0 0.00 0.00 0.00 69 1011.0
20260505083103 53 90 9.0 10.0 0.00 0.00 0.00 70 1011.0
20260505082603 51 93 7.0 9.0 0.00 0.00 0.00 72 1011.1
20260505082103 51 101 6.0 7.0 0.00 0.00 0.00 73 1011.2
20260505081603 51 101 6.0 7.0 0.00 0.00 0.00 73 1010.9
20260505080603 51 105 5.0 5.0 0.00 0.00 0.00 75 1011.1
20260505080103 52 105 3.0 5.0 0.00 0.00 0.00 74 1010.8
20260505075603 52 105 5.0 5.0 0.00 0.00 0.00 73 1010.8
20260505075103 53 105 5.0 6.0 0.00 0.00 0.00 72 1010.8
20260505074103 53 96 7.0 8.0 0.00 0.00 0.00 70 1010.8
20260505073603 53 96 7.0 8.0 0.00 0.00 0.00 70 1010.8
20260505073103 53 96 8.0 9.0 0.00 0.00 0.00 70 1010.9
20260505072603 54 96 7.0 9.0 0.00 0.00 0.00 69 1010.6
20260505071603 55 92 9.0 10.0 0.00 0.00 0.00 68 1010.6
20260505071104 55 92 8.0 10.0 0.00 0.00 0.00 66 1010.8
20260505070603 56 92 7.0 9.0 0.00 0.00 0.00 66 1010.8
20260505065603 55 101 7.0 9.0 0.00 0.00 0.00 68 1010.9
20260505065104 55 100 7.0 10.0 0.00 0.00 0.00 68 1010.7
20260505064603 55 100 6.0 8.0 0.00 0.00 0.00 70 1010.8
20260505064103 55 101 5.0 6.0 0.00 0.00 0.00 70 1010.7
20260505062603 55 104 6.0 7.0 0.00 0.00 0.00 70 1010.6
20260505061603 54 109 6.0 8.0 0.00 0.00 0.00 73 1010.6
20260505061103 54 106 7.0 9.0 0.00 0.00 0.00 72 1010.6
20260505060603 55 98 6.0 10.0 0.00 0.00 0.00 71 1010.6
20260505060103 56 96 9.0 10.0 0.00 0.00 0.00 69 1010.6
20260505055603 56 90 7.0 10.0 0.00 0.00 0.00 69 1010.5
20260505055103 56 88 8.0 10.0 0.00 0.00 0.00 70 1010.5
20260505054603 56 87 9.0 10.0 0.00 0.00 0.00 70 1010.6
20260505054102 56 89 9.0 12.0 0.00 0.00 0.00 70 1010.5
20260505053604 57 89 10.0 12.0 0.00 0.00 0.00 69 1010.2
20260505052603 57 82 10.0 12.0 0.00 0.00 0.00 67 1010.2
20260505052102 58 81 10.0 12.0 0.00 0.00 0.00 67 1010.2
20260505051603 58 81 10.0 12.0 0.00 0.00 0.00 67 1010.2
20260505051103 58 78 10.0 13.0 0.00 0.00 0.00 68 1010.0
20260505050603 58 81 9.0 12.0 0.00 0.00 0.00 69 1009.7
20260505041603 59 99 7.0 10.0 0.00 0.00 0.00 66 1009.0
20260505041103 60 82 9.0 12.0 0.00 0.00 0.00 64 1008.7
20260505040603 60 75 8.0 10.0 0.00 0.00 0.00 62 1008.5
20260505040103 61 63 7.0 12.0 0.00 0.00 0.00 61 1008.4
20260505035603 61 41 9.0 12.0 0.00 0.00 0.00 60 1008.2
20260505035103 62 29 10.0 13.0 0.00 0.00 0.00 59 1008.1
20260505034602 63 25 7.0 12.0 0.00 0.00 0.00 55 1007.9
20260505033603 63 350 3.0 7.0 0.00 0.00 0.00 51 1007.8
20260505033103 63 344 3.0 5.0 0.00 0.00 0.00 52 1007.6
20260505032603 63 341 2.0 3.0 0.00 0.00 0.00 53 1007.5
20260505032103 63 293 2.0 6.0 0.00 0.00 0.00 54 1007.4
20260505031603 63 288 5.0 6.0 0.00 0.00 0.00 55 1007.4
20260505031104 63 287 3.0 5.0 0.00 0.00 0.00 56 1007.5
20260505030604 63 289 3.0 5.0 0.00 0.00 0.00 55 1007.9
20260505030103 63 322 2.0 3.0 0.00 0.00 0.00 55 1007.9
20260505025603 64 301 2.0 3.0 0.00 0.00 0.00 55 1007.8
20260505025103 64 297 1.0 3.0 0.00 0.00 0.00 56 1007.8
20260505024603 65 289 3.0 3.0 0.00 0.00 0.00 55 1007.5
20260505024103 65 333 2.0 3.0 0.00 0.00 0.00 55 1007.4
20260505023604 66 315 2.0 5.0 0.00 0.00 0.00 54 1007.4
20260505023104 67 285 3.0 5.0 0.00 0.00 0.00 53 1007.2
20260505021603 68 287 4.0 9.0 0.00 0.00 0.00 51 1007.2
20260505021102 68 286 5.0 8.0 0.00 0.00 0.00 52 1008.1
20260505020103 68 298 4.0 9.0 0.00 0.00 0.00 51 1008.2
20260505015103 68 306 6.0 12.0 0.00 0.00 0.00 51 1008.2
20260505014603 68 281 5.0 7.0 0.00 0.00 0.00 52 1008.2
20260505014103 68 301 5.0 9.0 0.00 0.00 0.00 50 1008.2
20260505013603 69 299 6.0 13.0 0.00 0.00 0.00 51 1008.2
20260505013103 69 288 7.0 14.0 0.00 0.00 0.00 50 1008.2
20260505012603 69 302 6.0 13.0 0.00 0.00 0.00 50 1008.2
20260505012103 70 293 10.0 14.0 0.00 0.00 0.00 48 1007.9
20260505011603 70 291 7.0 17.0 0.00 0.00 0.00 49 1008.0
20260505011103 70 293 9.0 15.0 0.00 0.00 0.00 49 1008.1
20260505005603 71 313 5.0 12.0 0.00 0.00 0.00 47 1008.3
20260505004103 70 297 7.0 17.0 0.00 0.00 0.00 50 1008.4
20260505003603 71 289 10.0 14.0 0.00 0.00 0.00 48 1008.4
20260505003103 71 301 7.0 13.0 0.00 0.00 0.00 48 1008.4
20260505002602 71 284 6.0 17.0 0.00 0.00 0.00 52 1008.4
20260505002103 71 284 9.0 17.0 0.00 0.00 0.00 48 1008.4
20260505001603 71 295 6.0 15.0 0.00 0.00 0.00 49 1008.4
20260505001103 71 293 10.0 17.0 0.00 0.00 0.00 49 1008.4
20260505000603 71 296 8.0 13.0 0.00 0.00 0.00 48 1008.6
20260504235603 72 313 5.0 9.0 0.00 0.00 0.00 47 1008.4
20260504235103 71 296 6.0 17.0 0.00 0.00 0.00 48 1008.7
20260504233603 72 291 9.0 14.0 0.00 0.00 0.00 47 1008.3
20260504233103 72 293 7.0 14.0 0.00 0.00 0.00 49 1008.3
20260504232103 72 293 9.0 14.0 0.00 0.00 0.00 49 1008.4
20260504231603 71 321 6.0 14.0 0.00 0.00 0.00 50 1008.7
20260504230604 72 308 5.0 12.0 0.00 0.00 0.00 51 1008.3
20260504225604 71 298 8.0 12.0 0.00 0.00 0.00 51 1008.4
20260504225103 71 293 5.0 14.0 0.00 0.00 0.00 52 1008.4
20260504224603 70 289 9.0 18.0 0.00 0.00 0.00 53 1008.7
20260504224103 70 282 13.0 17.0 0.00 0.00 0.00 51 1008.7
20260504223103 71 289 7.0 13.0 0.00 0.00 0.00 51 1008.5
20260504222603 71 300 7.0 16.0 0.00 0.00 0.00 52 1008.6
20260504222103 70 290 10.0 14.0 0.00 0.00 0.00 52 1008.9
20260504221603 70 294 7.0 13.0 0.00 0.00 0.00 52 1008.9
20260504221103 70 290 9.0 15.0 0.00 0.00 0.00 50 1009.1
20260504220603 69 288 7.0 14.0 0.00 0.00 0.00 51 1009.8